EHI
0 0 0 0 0 0 0 0 0 0 0 0 0 0 0 0 0 0 0 0 0 0 0 0 0 0 0 0 0 0 0 0 0 0 0 0 0 0 0 0 0 0 0
0 0 0 0 0 0 0 0 0 0 0 0 0 0 0 0 0 0 0 0 0 0 0 0 0 0 0 0 0 0 0 0 0 0 0 0 0 0 0 0 0 0 0
0 0 0 0 0 0 0 0 0 0 0 0 0 0 0 0 0 0 0 0 0 0 0 0 0 0 0 0 0 0 0 0 0 0 0 0 0 0 0 0 0 0 0
0 0 0 0 0 0 0 0 0 0 0 0 0 0 0 0 0 0 0 0 0 0 0 0 0 0 0 0 0 0 0 0 0 0 0 0 0 0 0 0 0 0 0
0 0 0 0 0 0 0 0 0 0 0 0 0 0 0 0 0 0 0 0 0 0 0 0 0 0 0 0 0 0 0 0 0 0 0 0 0 0 0 0 0 0 0
0 0 0 0 0 0 0 0 0 0 0 0 0 0 0 0 0 0 0 0 0 0 0 0 0 0 0 0 0 0 0 0 0 0 0 0 0 0 0 0 0 0 0
0 0 0 0 0 0 0 0 0 0 0 0 0 0 0 0 0 0 0 0 0 0 0 0 0 0 0 0 0 0 0 0 0 0 0 0 0 0 0 0 0 0 0
0 0 0 0 0 0 0 0 0 0 0 0 0 0 0 0 0 0 0 0 0 0 0 0 0 0 0 0 0 0 0 0 0 0 0 0 0 0 0 0 0 0 0
0 0 0 0 0 0 0 0 0 0 0 0 0 0 0 0 0 0 0 0 0 0 0 0 0 0 0 0 0 0 0 0 0 0 0 0 0 0 0 0 0 0 0
0 0 0 0 0 0 0 0 0 0 0 0 0 0 0 0 0 0 0 0 0 0 0 0 0 0 0 0 0 0 0 0 0 0 0 0 0 0 0 0 0 0 0
0 0 0 0 0 0 0 0 0 0 0 0 0 0 0 0 0 0 0 0 0 0 0 0 0 0 0 0 0 0 0 0 0 0 0 0 0 0 0 0 0 0 0
0 0 0 0 0 0 0 0 0 0 0 0 0 0 0 0 0 0 0 0 0 0 0 0 0 0 0 0 0 0 0 0 0 0 0 0 0 0 0 0 0 0 0
0 0 0 0 0 0 0 0 0 0 0 0 0 0 0 0 0 0 0 0 0 0 0 0 0 0 0 0 0 0 0 0 0 0 0 0 0 0 0 0 0 0 0
0 0 0 0 0 0 0 0 0 0 0 0 0 0 0 0 0 0 0 0 0 0 0 0 0 0 0 0 0 0 0 0 0 0 0 0 0 0 0 0 0 0 0
0 0 0 0 0 0 0 0 0 0 0 0 0 0 0 0 0 0 0 0 0 0 0 0 0 0 0 0 0 0 0 0 0 0 0 0 0 0 0 0 0 0 0
0 0 0 0 0 0 0 0 0 0 0 0 0 0 0 0 0 0 0 0 0 0 0 0 0 0 0 0 0 0 0 0 0 0 0 0 0 0 0 0 0 0 0
0 0 0 0 0 0 0 0 0 0 0 0 0 0 0 0 0 0 0 0 0 0 0 0 0 0 0 0 0 0 0 0 0 0 0 0 0 0 0 0 0 0 0
0 0 0 0 0 0 0 0 0 0 0 0 0 0 0 0 0 0 0 0 0 0 0 0 0 0 0 0 0 0 0 0 0 0 0 0 0 0 0 0 0 0 0
0 0 0 0 0 0 0 0 0 0 0 0 0 0 0 0 0 0 0 0 0 0 0 0 0 0 0 0 0 0 0 0 0 0 0 0 0 0 0 0 0 0 0
0 0 0 0 0 0 0 0 0 0 0 0 0 0 0 0 0 0 0 0 0 0 0 0 0 0 0 0 0 0 0 0 0 0 0 0 0 0 0 0 0 0 0
0 0 0 0 0 0 0 0 0 0 0 0 0 0 0 0 0 0 0 0 0 0 0 0 0 0 0 0 0 0 0 0 0 0 0 0 0 0 0 0 0 0 0
0 0 0 0 0 0 0 0 0 0 0 0 0 0 0 0 0 0 0 0 0 0 0 0 0 0 0 0 0 0 0 0 0 0 0 0 0 0 0 0 0 0 0
0 0 0 0 0 0 0 0 0 0 0 0 0 0 0 0 0 0 0 0 0 0 0 0 0 0 0 0 0 0 0 0 0 0 0 0 0 0 0 0 0 0 0
0 0 0 0 0 0 0 0 0 0 0 0 0 0 0 0 0 0 0 0 0 0 0 0 0 0 0 0 0 0 0 0 0 0 0 0 0 0 0 0 0 0 0
0 0 0 0 0 0 0 0 0 0 0 0 0 0 0 0 0 0 0 0 0 0 0 0 0 0 0 0 0 0 0 0 0 0 0 0 0 0 0 0 0 0 0
0 0 0 0 0 0 0 0 0 0 0 0 0 0 0 0 0 0 0 0 0 0 0 0 0 0 0 0 0 0 0 0 0 0 0 0 0 0 0 0 0 0 0
Wind_Speed
6 7 8 8 8 9 11 12 12 12 11 9 10 9 9 9 8 7 11 11 11 12 9 9 11 12 10 11 14 13 13 11 10 11 12 11 10 12 11 11 10 8 7
7 8 9 8 8 9 10 11 11 12 11 9 9 8 10 9 8 8 9 10 10 10 11 11 9 11 10 11 12 13 10 9 10 10 10 8 8 6 9 8 9 10 7
9 9 9 9 9 9 10 12 11 11 11 11 8 9 8 8 7 8 7 8 10 10 8 10 9 9 9 9 12 12 12 10 9 8 7 7 7 12 11 10 10 9 6
7 8 9 9 8 8 7 9 10 10 9 10 9 11 10 10 11 9 8 10 10 11 8 8 9 9 9 11 12 12 12 11 9 7 6 7 9 8 9 12 10 12 11
8 9 9 8 7 7 7 7 9 8 9 9 9 9 8 8 9 9 10 9 9 10 10 9 8 9 8 10 12 13 13 10 9 8 7 7 8 10 9 14 15 10 9
8 8 7 7 7 7 7 7 8 9 9 9 9 8 9 10 11 11 10 10 8 8 9 12 9 9 7 9 11 12 14 12 11 9 8 7 7 8 8 10 15 15 12
7 7 8 8 8 8 8 8 9 9 9 9 9 9 9 9 9 10 10 11 9 9 9 12 10 9 8 10 11 12 13 13 12 10 8 8 8 9 10 12 13 16 13
7 7 7 7 7 8 8 8 9 9 9 9 9 8 8 6 6 8 9 9 8 9 10 11 11 11 11 13 12 10 12 12 12 13 11 9 8 9 10 11 11 14 14
7 6 6 6 6 7 7 8 9 10 10 9 9 8 8 8 8 9 8 7 8 11 12 12 11 12 12 13 13 10 13 13 12 12 11 9 9 9 10 10 11 12 13
6 6 6 6 6 6 6 7 8 8 9 9 9 11 9 9 9 9 9 9 10 11 13 12 11 13 13 14 13 12 13 15 14 11 11 10 9 10 10 11 11 12 13
6 6 6 6 6 6 6 7 7 8 8 9 9 10 9 9 9 9 10 10 9 11 12 13 13 14 14 14 13 14 16 17 15 11 11 12 12 11 10 10 11 12 12
7 6 6 7 6 7 7 7 7 7 8 8 9 10 10 10 9 10 11 12 12 10 12 13 14 15 15 14 15 16 16 17 13 11 12 13 11 14 12 10 11 11 10
7 6 6 6 7 7 7 8 7 8 8 8 9 10 10 10 10 11 12 13 13 10 11 11 13 15 15 15 15 14 16 16 11 10 12 12 13 13 11 12 10 9 7
6 7 6 7 7 7 8 8 8 8 9 9 9 9 10 10 11 13 14 14 13 11 10 10 13 15 15 16 15 14 15 11 8 9 10 12 13 13 13 10 8 7 6
7 7 7 7 8 8 8 8 8 8 8 8 8 8 9 9 10 12 13 13 13 14 11 11 13 15 14 13 18 16 9 5 6 7 10 13 17 20 17 13 13 10 4
7 8 8 9 9 9 9 8 8 8 8 8 8 8 8 9 11 12 12 13 12 11 10 11 13 15 15 25 28 12 6 6 7 7 10 13 15 20 23 25 25 23 14
6 7 8 8 8 9 8 9 9 9 9 8 8 8 8 9 11 13 12 11 10 10 10 11 12 13 17 29 24 19 11 9 8 9 10 11 14 17 14 19 23 22 26
6 6 6 7 7 7 8 8 9 9 9 8 8 8 9 9 10 10 10 9 8 8 8 10 12 13 17 28 25 22 12 9 9 11 12 12 13 16 16 14 15 15 17
4 5 6 6 7 7 8 9 9 9 8 9 9 9 9 9 9 9 9 9 8 7 7 8 10 12 15 26 26 22 10 9 10 11 14 15 14 24 25 16 14 14 15
4 5 6 6 7 7 7 8 10 9 9 10 10 10 10 9 10 10 10 8 8 8 8 9 9 11 11 23 25 22 10 10 9 9 12 19 22 26 25 15 14 14 14
5 6 6 6 7 7 7 9 10 9 10 10 11 10 9 10 10 8 8 9 8 9 8 9 9 9 12 19 24 24 9 9 9 8 8 11 24 26 26 21 15 18 15
5 6 6 7 7 7 7 9 9 9 9 10 11 10 10 10 10 8 8 8 8 7 7 7 7 6 8 16 19 24 20 15 9 8 7 11 23 24 25 19 22 25 18
5 5 6 7 7 7 7 8 9 9 10 11 10 9 11 9 7 8 8 8 7 5 6 7 7 7 6 10 20 22 22 20 10 8 17 19 22 20 16 23 25 19 12
4 5 6 7 7 7 7 7 8 9 10 11 9 9 10 9 7 8 8 7 8 6 6 6 7 6 7 6 5 6 8 13 10 9 14 18 20 17 18 17 15 12 12
3 4 5 6 7 7 8 7 8 9 10 10 8 9 10 8 7 8 8 10 6 11 8 5 4 5 6 10 16 9 6 5 8 8 7 8 9 10 10 10 10 10 11
4 5 6 6 7 7 8 7 8 9 9 9 8 7 8 7 7 6 8 16 17 20 19 15 11 8 13 15 16 15 16 17 18 10 5 7 8 9 10 9 9 9 10
Wind_Direction
27 32 30 33 19 10 5 354 357 353 350 352 344 342 341 336 331 342 345 346 346 339 337 337 337 334 332 332 330 330 329 330 329 329 323 302 285 269 275 276 274 261 246
16 21 22 28 17 11 6 353 356 351 350 350 340 340 333 327 329 339 337 338 339 339 340 342 340 336 331 327 329 328 324 327 337 328 321 318 309 346 307 292 272 255 237
14 11 14 20 13 13 8 353 350 350 349 347 341 340 328 330 335 335 332 335 337 332 337 341 335 330 330 327 326 326 329 326 326 330 329 324 334 330 306 313 324 323 281
16 13 16 15 10 14 7 352 346 346 346 344 342 341 339 335 332 331 328 332 333 327 335 337 334 331 331 327 326 331 323 322 322 323 313 306 308 300 312 311 314 319 319
24 19 17 9 9 15 6 350 341 342 343 342 339 336 332 327 325 326 329 330 327 327 334 336 332 329 326 327 325 325 320 316 311 308 303 298 297 286 287 293 302 313 312
29 20 11 5 11 12 0 345 341 343 343 341 336 336 330 329 328 332 330 328 325 328 333 334 330 323 324 327 323 321 316 313 308 305 301 297 292 294 289 286 295 301 305
30 15 6 6 8 359 355 348 346 343 342 339 337 332 328 327 326 329 326 326 327 329 327 331 326 323 326 325 321 318 314 312 310 305 301 297 290 287 281 281 286 290 294
31 17 11 9 1 355 353 348 344 340 340 338 335 326 327 324 320 322 320 322 324 321 321 327 323 324 327 325 318 313 315 314 312 304 298 297 292 285 276 269 275 283 287
24 15 11 8 2 356 351 345 341 339 339 336 332 323 327 322 320 319 317 319 320 322 326 322 328 329 327 321 316 313 314 311 306 300 295 293 291 285 277 267 256 260 272
21 16 9 6 0 354 347 342 339 337 335 334 331 330 324 321 321 321 321 322 321 322 321 324 330 330 324 319 316 316 311 310 305 298 298 300 296 290 280 267 257 249 254
25 13 6 1 353 351 345 337 336 336 334 331 327 322 320 322 325 324 323 321 319 322 325 328 331 328 322 319 315 316 315 314 307 309 312 306 301 294 287 275 260 247 243
29 15 4 353 349 347 341 336 335 336 331 328 326 323 324 327 327 326 326 323 320 322 329 330 329 326 322 316 313 314 318 315 315 319 316 313 309 300 291 282 274 261 245
20 9 360 349 346 341 339 335 337 335 329 331 326 325 326 327 328 327 327 323 320 324 328 328 328 324 317 312 307 306 310 310 309 315 318 318 314 309 302 289 276 271 264
12 2 354 345 342 338 336 333 337 328 330 330 323 323 323 326 327 327 324 321 323 325 324 327 324 318 313 305 299 299 303 306 314 325 329 325 324 330 328 322 314 285 265
5 358 348 340 339 336 332 332 326 322 326 317 315 314 317 320 322 321 319 323 327 326 322 322 318 314 312 307 307 301 307 333 334 340 348 345 354 2 1 2 357 348 325
359 350 342 340 338 331 327 326 319 323 316 311 310 312 318 321 321 321 326 329 326 322 324 320 315 315 319 320 329 5 34 16 4 10 9 0 1 12 9 13 17 18 19
353 342 337 335 327 321 322 326 327 320 315 313 314 318 317 319 322 328 329 324 322 322 322 319 317 318 320 333 353 33 30 18 22 22 19 13 7 22 12 10 16 17 24
346 332 325 318 314 319 324 324 321 317 318 321 326 322 319 318 322 324 320 318 318 317 314 316 322 325 331 344 8 28 22 22 23 21 21 19 9 23 24 13 16 17 17
346 324 317 315 325 326 324 324 321 321 326 332 332 330 325 323 325 323 320 321 320 317 314 318 325 331 336 349 16 31 12 24 23 17 15 19 17 24 28 17 17 20 15
348 330 326 329 327 319 323 328 325 330 337 337 335 330 326 325 322 321 322 319 321 324 325 327 329 333 336 352 16 37 25 24 19 13 8 14 23 23 30 23 16 24 17
350 342 337 330 318 317 332 330 327 336 336 334 329 326 326 325 322 321 320 322 325 329 331 336 334 331 351 356 8 26 36 25 14 9 2 8 22 24 28 29 25 27 26
350 347 336 322 317 330 341 330 330 331 333 329 326 328 330 330 340 336 334 333 332 335 340 344 346 341 356 1 6 17 22 29 15 1 355 9 23 24 25 28 27 28 26
347 341 330 319 326 342 343 329 326 334 334 329 329 334 331 330 340 343 340 338 334 338 356 357 358 350 4 359 14 20 18 19 18 5 14 19 23 23 22 25 27 24 22
342 337 327 327 331 336 334 324 332 339 334 330 335 341 335 335 342 351 348 342 340 355 12 2 358 348 351 350 4 19 14 11 13 11 13 19 22 26 24 25 24 20 24
337 334 329 328 327 329 327 331 346 342 336 331 341 345 340 335 346 355 352 353 355 14 16 1 349 346 350 15 28 29 11 9 32 27 15 14 14 17 19 20 22 21 20
345 338 328 326 324 328 328 338 350 341 334 339 350 344 338 342 352 354 353 3 11 15 18 22 23 1 10 24 25 22 21 27 32 31 18 20 17 15 14 16 17 20 22